Inquirer Daily News

Weather

Get conditions and forecasts for any City, State, ZIP code or Country:  
Northeast Philadelphia, PA
on Monday, December 10, 2012

Monday
Previous Day Next Day
Daily Summary
 ActualAverage (KTTN)Record (KTTN)
Temperature
Mean Temperature °F 37°F  
Max Temperature 60°F 45°F 72°F (1966)
Min Temperature 44°F 29°F 4°F (1876)
Degree Days
Heating Degree Days 13 28  
Month to date heating degree days 264  
Since 1 July heating degree days 1240  
Cooling Degree Days 0 0  
Month to date cooling degree days 0  
Year to date cooling degree days 965  
Growing Degree Days2 (Base °F )  
Moisture
Dew Point 54°F   
Average Humidity 96    
Maximum Humidity 100    
Minimum Humidity 88    
Precipitation
Precipitation 0.05 in 0.13 in 1.52 in (1969)
Month to date precipitation 1.36  
Year to date precipitation 44.10  
Wind
Wind Speed 3 mph   
Max Wind Speed 9 mph   
Max Gust Speed mph   
Visibility 3 miles   
Events Fog   

Key: T is trace of precipitation, MM is missing value
Source: NWS Daily Summary
Time(EST)TemperatureDew PointHumidity Pressure Visibility Wind DirectionWind SpeedGust SpeedPrecipitationEvents Conditions
12:54 AM 44.1°F 43.0°F 96% 29.98 in 5.0 miles NE 3.5 mph - N/A   Overcast
1:30 AM 44.6°F 44.6°F 100% 29.95 in 2.0 miles NE 3.5 mph - N/A   Overcast
1:38 AM 44.6°F 44.6°F 100% 29.95 in 1.2 miles Calm Calm - N/A   Overcast
1:54 AM 45.0°F 44.1°F 97% 29.95 in 0.8 miles NE 3.5 mph - N/A   Overcast
2:35 AM 44.6°F 44.6°F 100% 29.93 in 1.0 miles Calm Calm - 0.03 in   Mist
2:42 AM 44.6°F 44.6°F 100% 29.93 in 0.8 miles Calm Calm - 0.03 in   Mist
2:54 AM 45.0°F 45.0°F 100% 29.92 in 0.8 miles Calm Calm - 0.03 in   Mist
3:54 AM 46.0°F 45.0°F 96% 29.90 in 0.8 miles Calm Calm - 0.01 in   Mist
4:54 AM 46.0°F 45.0°F 96% 29.86 in 0.5 miles Calm Calm - N/A Fog Fog
5:54 AM 46.9°F 46.0°F 97% 29.85 in 0.2 miles Calm Calm - N/A Fog Fog
6:54 AM 46.9°F 46.9°F 100% 29.83 in 0.5 miles Calm Calm - N/A Fog Fog
7:54 AM 48.0°F 48.0°F 100% 29.81 in 0.2 miles Calm Calm - N/A Fog Fog
8:54 AM 51.1°F 51.1°F 100% 29.80 in 0.2 miles Calm Calm - N/A Fog Fog
9:10 AM 51.8°F 51.8°F 100% 29.80 in 0.2 miles Calm Calm - N/A Fog Fog
9:43 AM 53.6°F 53.6°F 100% 29.79 in 0.2 miles Calm Calm - N/A Fog Fog
9:54 AM 53.1°F 53.1°F 100% 29.79 in 0.2 miles SW 3.5 mph - N/A Fog Fog
10:54 AM 57.2°F 57.2°F 100% 29.75 in 0.2 miles SW 6.9 mph - N/A Fog Fog
11:02 AM 57.2°F 57.2°F 100% 29.75 in 0.5 miles SW 8.1 mph - N/A Fog Fog
11:47 AM 57.2°F 57.2°F 100% 29.72 in 1.0 miles SSW 9.2 mph - N/A   Overcast
11:54 AM 57.9°F 57.9°F 100% 29.72 in 1.0 miles SSW 8.1 mph - N/A   Overcast
12:54 PM 59.0°F 59.0°F 100% 29.68 in 1.2 miles SW 9.2 mph - 0.01 in   Overcast
1:54 PM 59.0°F 59.0°F 100% 29.65 in 1.5 miles West 6.9 mph - N/A   Overcast
2:54 PM 59.0°F 59.0°F 100% 29.63 in 2.0 miles SW 5.8 mph - N/A   Overcast
3:01 PM 59.0°F 57.2°F 94% 29.63 in 3.0 miles SW 6.9 mph - N/A   Overcast
3:19 PM 60.8°F 57.2°F 88% 29.62 in 4.0 miles SW 4.6 mph - N/A   Overcast
3:29 PM 60.8°F 57.2°F 88% 29.62 in 4.0 miles SW 6.9 mph - N/A   Overcast
3:44 PM 60.8°F 57.2°F 88% 29.61 in 4.0 miles WSW 5.8 mph - N/A   Overcast
3:54 PM 60.1°F 57.9°F 93% 29.61 in 5.0 miles SW 5.8 mph - N/A   Overcast
4:22 PM 60.8°F 57.2°F 88% 29.60 in 5.0 miles North - - N/A   Mostly Cloudy
4:54 PM 60.1°F 57.9°F 93% 29.60 in 7.0 miles WSW 5.8 mph - N/A   Overcast
5:15 PM 60.8°F 57.2°F 88% 29.60 in 7.0 miles SW 3.5 mph - N/A   Overcast
5:31 PM 60.8°F 57.2°F 88% 29.59 in 7.0 miles SSW 3.5 mph - N/A   Overcast
5:54 PM 59.0°F 57.9°F 96% 29.60 in 7.0 miles SW 3.5 mph - N/A   Overcast
6:54 PM 59.0°F 57.0°F 93% 29.59 in 5.0 miles SSW 3.5 mph - N/A   Overcast
7:25 PM 57.2°F 57.2°F 100% 29.59 in 4.0 miles WSW 4.6 mph - N/A   Overcast
7:54 PM 59.0°F 57.0°F 93% 29.60 in 5.0 miles WSW 5.8 mph - N/A   Overcast
8:54 PM 57.9°F 55.9°F 93% 29.58 in 5.0 miles South 3.5 mph - N/A   Overcast
9:32 PM 57.2°F 55.4°F 94% 29.59 in 6.0 miles SW 4.6 mph - N/A   Overcast
9:39 PM 57.2°F 55.4°F 94% 29.59 in 5.0 miles SSW 3.5 mph - N/A   Overcast
9:54 PM 57.9°F 55.9°F 93% 29.59 in 5.0 miles SW 3.5 mph - N/A   Overcast
10:19 PM 57.2°F 55.4°F 94% 29.59 in 4.0 miles SSW 3.5 mph - N/A   Overcast
10:27 PM 57.2°F 57.2°F 100% 29.60 in 4.0 miles SW 4.6 mph - N/A   Overcast
10:54 PM 57.9°F 57.0°F 97% 29.60 in 4.0 miles Calm Calm - N/A   Overcast
11:11 PM 57.2°F 57.2°F 100% 29.59 in 4.0 miles SSW 5.8 mph - N/A   Mostly Cloudy
11:54 PM 57.0°F 55.9°F 96% 29.60 in 3.0 miles SW 5.8 mph - N/A   Mostly Cloudy
Astronomy
Sunrise:07:11 AM (EST) Moon Rise:03:52 AM (EST)12/10
Sunset:04:34 PM (EST) Moon Set:02:22 PM (EST)12/10
Moon Phase
Dec. 10 Dec. 13 Dec. 20 Dec. 28 Jan. 04

Copyright © 2014 The Weather Underground, Inc.